User: anonymous
Location: Frydek-Mistek
(49.6830°N, 18.3330°E)
Time: 11:34:30
(UTC+02:00)
Language:

Courier 1B Rocket - Orbit

View from above orbital plane
View from above orbital plane
View from above satellite
View from above satellite

Ground track
Ground track

The orbit data is extracted from the following two-line orbital elements,

1 00059U 60013B   14104.84197369  .00000169  00000-0  11082-3 0  8957
2 00059 028.2480 284.1741 0189202 075.1806 286.9617 13.52887460641426
Epoch (UTC): 14 April 2014 20:12:26
Eccentricity: 0.0189202
inclination: 28.2480°
perigee height: 921 km
apogee height: 1202 km
right ascension of ascending node: 284.1741°
argument of perigee: 75.1806°
revolutions per day: 13.52887460
mean anomaly at epoch: 286.9617°
orbit number at epoch: 64142

The dashed part of the orbit path shows where the satellite is in the earth's shadow,  

DLR